GW3122 Weather Reports


time (UTC)temp
C
wind
direction
speed
KPH
gust
KPH
rain 1hr
cm
rain 24hr
cm
rain mn
cm
humidity
%
barometer
mb
20240518191535 13 166 11.3 19.3 0.00 0.10 0.10 78 1012.7
20240518190022 13 161 9.7 17.7 0.00 0.10 0.10 78 1012.5
20240518184509 13 138 4.8 11.3 0.00 0.10 0.10 76 1012.0
20240518183007 13 144 4.8 12.9 0.00 0.10 0.10 76 1012.0
20240518181605 13 121 8.0 14.5 0.00 0.10 0.10 76 1011.9
20240518180043 13 119 8.0 14.5 0.00 0.10 0.10 77 1012.0
20240518174544 13 142 8.0 16.1 0.00 0.10 0.10 78 1012.0
20240518173039 13 121 8.0 16.1 0.00 0.10 0.10 80 1012.1
20240518171546 13 141 6.4 14.5 0.03 0.10 0.10 80 1012.4
20240518170016 13 148 11.3 19.3 0.05 0.10 0.10 81 1012.8
20240518164511 13 155 6.4 12.9 0.08 0.10 0.10 83 1012.8
20240518163006 14 159 1.6 4.8 0.08 0.10 0.10 82 1012.4
20240518161607 14 169 3.2 8.0 0.05 0.08 0.08 79 1012.6
20240518160043 15 165 6.4 25.7 0.03 0.05 0.05 76 1012.7
20240518154538 16 165 3.2 11.3 0.00 0.03 0.03 73 1012.8
20240518153045 16 121 4.8 11.3 0.00 0.03 0.03 70 1012.5
20240518151529 16 94 3.2 12.9 0.00 0.03 0.03 70 1012.5
20240518150009 16 90 3.2 14.5 0.00 0.03 0.03 69 1012.6
20240518144510 16 76 4.8 14.5 0.00 0.03 0.03 69 1012.6
20240518143006 17 92 8.0 17.7 0.00 0.03 0.03 68 1012.7
20240518141511 17 146 8.0 16.1 0.00 0.03 0.03 65 1012.7
20240518140050 17 109 6.4 14.5 0.03 0.03 0.03 67 1012.9
20240518134559 16 164 8.0 16.1 0.03 0.03 0.03 70 1012.9
20240518133050 14 162 4.8 12.9 0.03 0.03 0.03 75 1012.9
20240518131546 13 146 1.6 16.1 0.03 0.03 0.03 73 1013.0
20240518130027 16 192 16.1 41.8 0.00 0.00 0.00 62 1013.3
20240518124529 18 171 4.8 19.3 0.00 0.00 0.00 55 1012.9
20240518123032 20 211 9.7 24.1 0.00 0.00 0.00 52 1012.9
20240518121524 20 177 9.7 22.5 0.00 0.00 0.00 55 1012.9
20240518120104 18 87 12.9 24.1 0.00 0.00 0.00 57 1013.0
20240518114503 18 171 12.9 24.1 0.00 0.00 0.00 54 1013.1
20240518113003 19 238 8.0 29.0 0.00 0.00 0.00 53 1013.0
20240518111605 18 171 19.3 33.8 0.00 0.00 0.00 52 1013.0
20240518110048 18 161 3.2 12.9 0.00 0.00 0.00 56 1013.0
20240518104602 18 204 8.0 14.5 0.00 0.00 0.00 55 1013.0
20240518103101 18 157 9.7 19.3 0.00 0.00 0.00 56 1013.1
20240518101553 18 126 8.0 17.7 0.00 0.00 0.00 58 1013.2
20240518100038 18 177 14.5 24.1 0.00 0.00 0.00 55 1013.1
20240518094540 18 164 9.7 19.3 0.00 0.00 0.00 56 1013.2
20240518093036 19 126 11.3 25.7 0.00 0.00 0.00 55 1013.2
20240518091530 18 173 8.0 22.5 0.00 0.00 0.00 54 1013.2
20240518090011 18 115 9.7 19.3 0.00 0.00 0.00 55 1013.3
20240518084605 18 157 11.3 22.5 0.00 0.00 0.00 55 1013.3
20240518083106 18 159 11.3 20.9 0.00 0.00 0.00 55 1013.2
20240518081555 17 163 8.0 16.1 0.00 0.00 0.00 60 1013.1
20240518080025 16 236 6.4 17.7 0.00 0.00 0.00 65 1013.0
20240518074516 15 140 6.4 17.7 0.00 0.00 0.00 69 1013.1
20240518073025 15 107 6.4 14.5 0.00 0.00 0.00 70 1013.2
20240518071518 15 159 9.7 22.5 0.00 0.00 0.00 68 1013.1
20240518070100 15 166 11.3 19.3 0.00 0.00 0.00 73 1013.2
20240518064547 14 160 9.7 17.7 0.00 0.00 0.00 75 1013.1
20240518063044 13 163 11.3 17.7 0.00 0.00 0.00 75 1012.9
20240518061537 13 156 8.0 17.7 0.00 0.00 0.00 76 1012.7
20240518060017 13 144 6.4 22.5 0.00 0.00 0.00 78 1012.6